Location: Constantia
(34.0183°S, 18.4411°E)
Time: 10:12:24
(UTC+00:00)

Cosmos 1892 - Pass Details

Date: 17 February 2020
Orbit: 505 x 524 km, 82.5° (Epoch: 08 April)

Event Time Altitude Azimuth Distance (km) Brightness Sun altitude
Rises 03:27:46 0° 355° (N) 2,609 6.0 -11.5°
Reaches altitude 10° 03:29:52 10° 355° (N) 1,735 5.1 -11.1°
Maximum altitude 03:33:41 88° 84° (E) 527 2.7 -10.4°
Drops below altitude 10° 03:37:35 10° 173° (S) 1,775 5.8 -9.7°
Sets 03:39:45 0° 173° (S) 2,675 6.7 -9.3°
